RH
74 94 87 63 46 39 40 47 44 44 43 44 44 45 40 34 32 31 28 24 23 24 24 26 26 26 27 28 29 30 30 31 40 57 95 100 100 100 99 98 98 86 86 82
82 93 68 50 50 49 46 43 45 55 46 44 44 46 37 33 33 32 31 28 26 25 23 23 24 25 26 27 27 28 30 31 32 40 63 80 83 94 99 100 100 99 93 93
71 69 52 56 58 56 50 46 55 50 48 43 45 42 39 31 29 30 29 30 32 33 30 28 26 28 30 29 30 32 32 34 35 36 44 62 73 80 84 94 96 97 100 99
86 78 65 62 59 49 64 54 53 53 54 52 46 33 39 33 39 37 38 40 40 39 34 34 33 34 37 44 45 38 37 37 38 41 42 53 66 72 74 70 79 87 98 98
98 92 81 78 60 54 72 56 53 52 52 50 47 46 36 32 38 39 37 38 42 44 43 39 39 42 43 48 51 48 40 34 37 39 43 48 62 60 62 69 75 77 91 100
96 91 87 86 92 72 49 50 50 50 54 66 44 48 31 32 30 36 34 35 40 44 45 43 44 45 46 51 51 48 43 43 43 39 42 45 51 62 67 74 80 83 89 99
100 97 86 80 89 88 70 58 81 77 80 59 54 50 29 30 29 30 40 41 40 43 47 49 47 47 50 53 53 50 47 45 47 48 45 40 45 56 69 73 77 80 85 99
92 96 90 76 60 67 59 58 69 54 43 41 57 50 31 31 29 32 34 39 43 47 50 52 51 53 55 57 56 55 52 50 56 57 57 54 50 48 48 54 63 68 71 78
78 89 55 55 52 49 62 72 49 65 62 56 36 39 34 34 33 35 34 38 46 53 54 54 53 55 59 60 61 62 57 57 58 62 64 63 64 66 61 59 59 65 69 78
60 90 62 56 50 51 53 48 67 79 66 47 33 30 27 38 37 34 37 42 47 55 54 51 52 61 64 63 66 65 63 60 62 69 71 75 80 84 84 82 77 73 73 82
50 59 80 56 63 61 60 64 59 48 48 44 24 21 25 35 33 36 38 42 56 57 52 51 56 60 60 63 66 66 67 68 72 75 78 86 92 99 99 99 98 98 98 99
54 62 77 67 56 52 52 54 47 55 63 64 62 28 25 27 32 36 38 50 58 53 51 54 54 55 58 63 66 67 66 66 70 77 81 83 87 89 92 97 96 96 98 98
49 70 84 76 66 60 66 58 54 53 63 84 52 29 32 32 34 32 41 55 55 54 49 48 47 51 54 60 63 65 64 63 63 68 72 78 82 84 85 80 80 86 89 90
45 57 57 54 65 66 85 69 57 80 85 56 52 35 33 35 32 37 44 58 56 52 47 48 48 50 55 60 65 66 66 66 65 68 72 76 82 82 82 85 83 79 77 76
48 70 70 62 61 65 68 71 67 82 68 85 47 48 31 31 37 38 51 63 61 54 47 47 48 51 57 61 66 68 70 69 70 72 76 81 88 90 86 92 93 93 87 88
58 93 86 82 66 68 81 65 66 67 61 62 54 55 35 33 35 47 65 68 62 56 48 46 46 52 62 68 74 76 76 78 78 81 82 84 90 96 100 100 100 100 99 98
58 81 81 71 68 69 81 72 65 63 59 56 72 48 38 40 44 61 73 69 59 53 54 48 47 51 62 73 80 83 82 86 90 90 89 91 97 99 99 100 99 100 99 100
60 68 75 74 69 82 50 53 52 56 50 52 50 44 41 42 59 70 65 61 52 52 55 48 48 54 60 69 74 80 88 99 99 99 99 95 96 99 100 99 100 99 99 99
51 61 80 76 66 50 52 62 60 64 64 48 50 44 42 50 71 75 62 51 50 48 49 52 58 63 65 70 76 84 93 95 99 99 99 100 100 100 100 100 100 100 99 99
60 60 63 79 85 61 55 52 53 51 69 54 51 51 54 68 72 69 64 55 56 56 58 60 66 73 77 82 81 84 95 98 100 99 100 100 99 99 99 100 99 99 97 98
80 80 80 71 74 50 38 43 46 84 68 54 60 60 59 65 65 73 65 66 65 67 70 74 78 83 88 90 98 99 99 99 100 99 100 100 99 98 98 99 98 91 76 70
65 74 78 69 78 73 44 64 76 63 55 53 55 56 62 71 74 71 70 72 73 74 77 80 81 89 95 99 98 98 99 100 99 99 100 100 100 90 73 58 50 47 45 44
68 52 60 56 49 39 44 53 48 54 49 52 56 54 61 77 76 70 78 78 77 81 85 89 93 99 100 99 99 99 100 99 100 94 78 59 46 44 46 45 45 41 40 37
61 54 57 60 48 45 40 43 54 57 58 55 54 55 65 68 71 75 76 84 84 84 83 78 90 98 99 99 99 98 99 97 74 51 42 40 39 39 38 37 36 32 31 30
58 59 57 57 52 51 48 53 62 60 56 55 53 56 62 66 69 69 74 82 84 84 84 83 94 92 100 100 100 98 87 67 46 43 43 40 39 38 43 48 42 39 47 45
63 59 62 53 48 53 56 65 74 65 62 58 57 60 69 68 67 66 69 79 84 87 87 91 89 96 100 100 94 83 74 52 42 40 40 41 45 50 54 56 63 77 78 79
Wind_Speed
19 5 14 20 19 0 8 16 9 7 6 7 12 11 12 12 13 14 15 14 12 10 11 14 14 14 14 15 16 17 17 19 21 22 21 24 25 30 26 28 24 23 24 25
11 14 14 14 14 7 12 13 10 5 5 6 5 8 12 14 13 10 10 10 8 5 3 5 7 7 9 12 15 17 19 20 21 24 24 25 22 23 24 23 25 29 26 25
16 6 14 16 14 12 9 12 10 4 6 1 4 7 6 3 4 5 6 5 5 5 5 7 8 8 6 5 9 13 15 17 19 20 22 22 22 19 18 23 25 28 34 31
3 6 18 18 18 14 11 4 8 8 7 3 2 3 4 7 9 9 10 8 7 7 7 7 8 10 10 9 8 5 8 12 15 16 19 23 24 24 25 25 24 24 25 32
4 7 14 17 18 14 4 7 6 5 3 1 4 4 6 9 10 9 8 7 7 7 6 7 8 8 9 10 9 9 6 4 7 12 17 20 23 23 23 23 25 25 24 26
5 4 5 3 8 6 11 10 7 4 1 4 4 4 8 9 11 9 5 6 5 6 6 8 8 8 10 11 11 9 8 7 5 3 11 18 20 21 20 19 21 22 22 23
2 4 2 8 7 5 3 9 4 3 3 2 1 4 3 8 6 9 5 5 5 5 6 8 9 10 13 14 13 10 9 8 7 6 3 6 13 16 19 20 19 21 20 20
3 4 2 2 1 6 7 4 2 3 4 3 3 5 3 7 8 9 2 3 3 5 6 7 8 10 12 13 13 13 11 8 8 8 7 5 6 7 11 15 18 19 20 21
4 4 4 2 2 3 3 4 2 4 2 2 4 3 4 4 9 7 2 3 4 5 8 8 9 10 11 13 13 13 12 9 8 8 7 7 6 6 9 11 13 15 16 18
3 6 2 5 3 9 2 8 3 0 4 4 4 3 4 11 14 6 2 4 3 4 5 7 8 10 11 11 11 9 10 10 9 9 8 8 7 7 8 9 10 12 13 13
6 3 3 3 2 6 4 3 2 1 2 2 2 3 8 15 13 5 4 3 2 4 6 7 7 8 9 10 11 10 11 11 11 11 11 9 9 9 9 8 9 9 9 9
2 4 5 2 2 3 1 2 3 2 3 1 3 3 5 9 9 2 5 1 2 4 5 5 7 8 9 10 11 11 11 11 12 12 11 11 11 11 10 9 8 9 7 5
5 3 5 4 2 1 4 4 2 4 2 4 2 4 4 5 6 4 5 1 3 4 4 5 6 7 9 10 10 11 12 13 13 13 13 13 13 13 13 12 10 8 5 3
3 3 1 0 3 3 4 8 9 4 3 4 5 2 7 7 4 7 3 1 2 3 3 5 5 7 7 7 9 11 12 11 10 10 12 14 13 13 11 10 9 9 8 7
1 3 0 1 1 2 3 6 12 8 5 5 1 5 4 6 7 7 1 0 2 2 2 4 4 4 4 4 6 7 8 9 10 12 14 14 13 13 12 12 13 14 14 12
2 3 1 0 0 5 5 9 9 13 13 12 13 18 15 6 3 2 3 2 2 1 2 2 3 3 4 6 9 10 9 9 10 12 13 13 14 13 13 14 15 15 19 18
3 5 1 1 2 3 8 15 17 10 9 12 10 9 5 4 5 3 4 3 2 2 0 1 2 3 6 7 9 7 7 8 10 11 13 13 13 12 14 14 18 22 25 22
6 5 1 1 1 4 2 2 4 16 9 15 11 13 10 7 2 3 3 2 1 2 2 1 1 3 5 5 7 6 8 11 12 13 14 13 12 13 14 18 20 21 20 20
1 4 2 2 3 6 2 3 5 6 0 13 17 15 8 3 4 3 4 2 2 2 3 3 3 4 4 6 7 7 9 11 12 13 14 13 15 18 19 21 21 22 23 22
4 2 3 1 3 3 3 3 2 3 5 5 8 6 3 6 3 3 6 5 4 4 3 3 3 4 5 7 6 7 10 12 12 12 12 14 16 18 19 19 20 21 22 20
3 2 7 5 4 5 4 4 1 3 4 1 2 4 4 4 2 8 7 5 5 5 4 4 5 6 6 6 7 9 13 13 13 14 15 17 18 19 18 18 17 16 15 14
8 5 3 5 5 6 2 4 3 1 0 1 3 4 5 4 7 8 7 7 7 7 6 5 6 6 6 8 11 11 13 12 15 16 17 16 13 11 10 11 11 11 11 10
5 5 3 7 3 1 2 1 2 2 8 7 4 2 3 8 8 10 9 8 7 8 7 6 8 8 7 9 13 15 12 14 13 11 11 10 10 10 9 9 9 8 6 5
6 7 3 3 4 10 10 6 2 4 5 4 3 2 4 6 9 10 10 8 9 11 11 10 10 10 10 12 14 15 12 10 10 10 10 9 9 9 8 7 6 6 5 5
1 7 8 9 8 8 11 4 3 4 4 4 2 3 5 6 10 11 10 10 11 13 13 13 12 13 12 13 13 11 10 11 11 10 8 8 8 7 8 8 6 6 6 5
6 7 6 6 5 4 3 3 3 7 6 5 4 4 4 7 9 11 10 14 14 14 16 14 14 15 13 13 13 12 12 11 11 9 8 6 7 6 6 6 7 7 6 5
Wind_Direction
189 194 187 185 194 57 181 196 189 209 140 207 229 241 247 255 261 258 264 268 269 273 286 284 280 270 264 254 246 243 242 236 233 231 227 227 225 233 233 231 232 227 227 224
169 209 206 183 180 164 183 189 184 107 165 230 209 250 251 252 265 284 282 280 289 290 309 332 319 293 265 259 251 245 238 234 232 231 229 230 233 238 236 235 235 231 229 229
181 208 193 186 179 183 191 198 172 153 149 112 276 247 204 126 96 109 94 96 73 49 36 34 39 33 19 326 273 254 247 243 238 234 235 234 233 238 237 234 237 237 234 226
152 299 188 186 188 183 180 170 152 139 184 210 276 179 118 131 114 110 103 83 61 46 43 41 35 37 29 12 0 294 264 251 246 240 234 231 231 233 236 239 240 240 238 234
184 227 173 186 187 192 115 156 124 117 140 251 189 243 114 152 138 125 94 73 57 38 28 26 26 22 20 16 14 19 0 298 259 239 230 233 236 242 246 246 245 245 243 241
33 0 28 101 77 76 134 109 85 91 104 231 159 251 165 178 165 142 105 62 58 35 28 23 20 19 19 17 14 14 17 25 15 261 234 233 238 243 245 248 247 250 248 245
31 46 35 110 79 90 80 167 139 175 189 250 149 217 61 144 166 147 89 54 35 23 27 13 8 4 2 1 2 1 2 0 3 0 340 260 252 253 252 253 254 256 255 249
89 109 59 231 133 173 177 238 263 190 180 139 159 225 130 142 141 150 78 12 16 36 20 14 7 350 346 344 344 349 349 350 357 356 347 317 287 269 260 257 256 257 256 255
121 83 97 128 119 160 172 216 20 95 61 230 178 216 219 179 194 204 306 348 33 22 4 2 354 350 347 342 340 337 338 341 347 348 343 338 321 294 279 276 269 263 262 260
124 112 43 157 153 55 249 134 168 244 184 224 181 237 144 150 157 178 360 5 29 3 3 357 356 357 354 348 348 348 344 341 346 348 347 343 338 329 309 297 286 278 274 269
136 98 150 193 210 177 151 190 78 102 312 274 192 131 136 150 148 119 14 7 356 354 5 8 15 7 9 9 13 11 7 359 357 356 352 351 351 348 342 331 315 297 283 278
79 106 151 151 34 306 290 209 208 255 170 31 333 105 164 163 169 86 357 357 356 22 8 30 28 18 19 19 19 18 15 14 8 5 4 1 358 357 354 347 339 326 311 280
163 108 125 161 197 190 219 195 156 103 68 198 234 118 147 184 215 278 327 25 22 9 27 34 30 26 22 16 15 16 18 17 16 17 19 18 15 14 15 9 9 11 8 29
97 110 298 238 86 117 191 194 194 167 181 175 230 352 176 184 267 324 335 312 3 16 36 34 24 24 11 14 22 20 16 14 16 32 39 36 30 33 33 32 34 39 54 77
49 106 73 38 68 190 217 198 194 205 194 210 57 229 245 299 312 322 347 214 341 349 37 31 31 24 353 16 40 33 27 22 29 44 46 39 36 41 43 48 52 59 62 66
27 108 82 19 43 250 265 243 221 223 235 252 261 279 280 291 302 298 251 212 253 309 21 26 19 24 8 20 34 30 24 29 40 52 53 51 49 45 49 58 62 69 85 80
131 138 165 230 354 282 265 232 212 206 209 221 220 234 226 290 308 303 217 210 226 196 132 51 26 31 31 30 40 31 30 41 47 55 59 60 65 64 64 74 85 83 80 85
155 119 140 299 251 236 77 121 216 214 229 222 249 251 259 292 301 175 175 206 189 177 149 141 95 69 52 57 59 47 51 57 61 62 71 73 81 85 87 90 92 97 104 102
213 144 141 259 244 305 203 159 167 181 173 225 234 257 269 233 181 182 160 123 150 147 136 119 66 65 64 64 61 69 67 71 68 67 74 83 95 98 99 97 100 103 102 98
93 76 223 151 268 252 69 111 217 204 168 175 207 250 212 172 235 111 159 153 142 134 142 137 108 87 74 60 76 90 84 81 74 77 88 101 104 104 103 106 106 106 105 102
162 161 219 218 265 280 248 223 341 227 93 117 218 245 215 218 24 126 132 138 147 142 138 124 101 87 83 93 104 97 92 84 92 100 104 105 106 108 109 110 109 105 98 97
189 192 200 204 228 257 152 129 196 1 24 283 292 266 236 161 129 143 153 162 158 137 126 126 113 104 106 117 118 107 98 110 114 115 111 108 105 105 108 106 104 101 100 97
209 211 189 214 229 3 217 245 299 259 294 300 267 251 221 159 172 167 171 170 157 148 144 140 132 125 121 129 130 118 119 124 120 115 111 108 106 102 99 98 97 94 93 96
218 193 239 207 225 242 248 252 314 333 303 295 261 284 211 202 173 169 166 167 162 157 161 158 151 144 139 143 139 136 138 134 131 122 115 109 103 100 95 93 91 91 85 84
226 164 219 246 263 271 263 223 139 349 283 261 241 240 241 211 182 175 173 172 170 165 162 165 164 157 155 155 149 149 152 146 137 130 123 115 110 104 96 81 74 75 68 72
191 210 212 249 217 232 145 104 26 297 316 300 256 228 221 209 192 183 178 173 171 172 165 171 172 164 166 164 158 157 159 156 147 141 136 138 131 123 116 110 100 87 97 85